Temperature
30 32 32 32 32 32 32 32 32 32 32 32 32 32 31 30 29 29 28 27 26 24 24 22 21 21 21 21 20 20 19 19 19 19 19 18 18 18 18 18 18 17 17 17
31 31 32 31 31 31 32 32 32 32 31 32 32 32 31 30 29 29 28 27 26 25 23 22 22 21 21 21 21 20 20 20 19 19 19 19 18 18 18 18 18 18 17 17
31 31 31 31 31 31 32 32 32 32 31 32 32 31 31 30 29 28 28 27 26 25 24 23 22 21 21 21 21 20 20 20 19 19 19 18 18 18 18 18 18 18 18 17
31 31 30 31 31 32 31 32 32 31 31 32 31 31 31 31 30 29 28 27 26 25 24 23 22 22 21 21 21 20 20 20 20 19 19 18 18 18 18 18 18 18 18 17
30 30 30 30 31 31 32 31 31 31 31 31 31 31 32 31 30 30 29 27 26 25 24 23 23 22 21 21 20 20 20 20 20 19 19 19 18 18 18 18 18 18 17 17
30 30 30 31 31 31 30 31 30 31 32 30 31 31 31 32 31 31 29 27 26 25 24 23 22 21 21 21 20 20 20 20 19 19 19 19 18 18 18 18 18 18 17 17
29 30 30 30 30 30 31 31 30 30 30 30 30 30 31 31 31 30 29 27 25 24 24 23 22 21 21 21 20 20 20 20 19 19 19 18 18 18 18 18 18 18 17 17
29 29 30 31 31 31 31 31 30 30 30 31 30 30 32 31 29 28 28 27 25 25 24 23 22 22 21 21 20 20 20 20 19 19 19 19 18 18 18 18 18 17 17 17
30 30 30 30 31 31 31 31 33 31 30 30 31 31 31 30 30 29 28 27 26 25 24 23 22 22 21 21 20 20 20 20 19 19 19 19 18 18 18 18 17 17 17 17
30 29 30 30 30 30 31 32 31 31 29 29 30 30 31 31 30 30 29 27 26 25 24 23 22 22 21 21 20 20 20 20 19 19 18 18 18 18 18 17 17 17 17 17
29 29 29 29 29 30 29 30 31 31 31 30 30 31 32 31 31 30 29 27 26 25 24 23 22 22 21 20 20 20 19 19 19 19 18 18 18 18 17 17 17 17 17 17
29 29 29 29 30 30 31 31 30 30 29 29 30 31 31 31 31 30 29 27 26 24 24 23 22 21 21 21 20 20 19 19 19 19 18 18 18 17 17 17 17 17 17 17
28 28 27 28 29 29 29 30 30 31 30 30 30 31 31 30 30 29 28 26 25 24 23 23 22 21 21 20 20 20 19 19 19 18 18 18 18 17 17 17 17 17 17 17
27 28 28 28 29 30 29 29 30 30 30 30 30 31 31 30 30 29 27 26 25 23 23 22 22 21 21 20 20 20 19 19 18 18 18 18 18 18 18 17 17 17 17 17
27 27 28 29 30 30 30 29 29 29 30 30 30 31 31 30 30 29 27 26 25 23 23 22 21 21 20 20 20 19 19 19 18 18 18 18 18 18 17 17 17 17 17 16
26 26 27 27 28 29 29 29 29 29 30 30 30 30 30 29 28 27 26 25 24 23 23 22 21 20 20 20 20 19 19 19 19 18 18 18 18 17 17 17 17 17 16 16
26 25 26 27 28 28 27 29 29 29 29 29 30 30 29 28 27 26 26 25 25 24 23 22 21 21 20 20 20 20 19 19 18 18 18 17 17 17 17 17 17 16 16 16
24 24 26 27 26 26 28 29 29 28 28 29 28 28 28 27 25 24 24 24 24 24 23 22 21 21 20 20 20 20 19 18 18 18 17 17 17 17 17 16 16 16 16 16
24 24 26 26 26 26 27 27 27 27 28 27 27 27 26 25 25 24 22 22 22 22 22 21 21 21 20 20 20 19 19 18 18 17 17 17 17 16 16 16 16 16 16 15
23 23 25 26 25 26 27 27 26 27 27 26 25 25 25 24 27 25 21 20 20 20 21 21 20 20 20 19 19 19 18 18 18 17 17 17 17 16 16 16 16 15 15 15
23 23 24 25 25 26 26 24 25 26 26 24 23 23 23 23 23 21 20 19 19 19 20 20 20 20 20 19 19 19 18 18 18 17 17 17 16 16 15 15 15 15 15 14
24 24 24 25 25 25 23 24 25 23 22 22 22 22 21 20 19 19 18 18 18 19 19 19 19 19 19 19 19 18 18 18 17 17 17 16 16 15 15 15 15 14 14 14
23 23 24 24 24 21 20 21 20 20 20 20 21 20 20 19 19 18 18 18 18 18 18 18 19 18 18 18 18 17 17 17 17 17 16 16 15 15 15 15 14 14 14 13
21 20 22 21 21 20 19 19 19 19 19 19 19 19 19 19 18 18 17 17 17 17 17 17 17 17 17 17 17 17 17 17 16 16 16 16 15 15 14 14 14 13 13 13
20 21 21 20 20 19 19 18 18 18 18 18 18 18 18 18 17 17 17 17 16 17 16 16 16 16 16 16 16 16 16 16 16 16 15 15 15 14 14 14 13 13 13 13
19 20 20 20 19 20 18 17 17 17 17 17 17 17 17 17 17 17 16 16 16 16 16 16 16 16 16 16 16 16 15 15 15 15 15 15 14 14 14 13 13 13 13 12
Wind_Speed
5 9 10 7 4 2 2 4 3 1 0 3 5 4 4 6 8 9 9 10 10 10 10 11 12 12 12 12 12 12 12 11 9 7 7 7 6 6 6 6 7 7 7 7
8 11 6 3 3 4 6 6 5 3 1 3 3 4 4 6 8 7 9 9 9 10 10 11 12 12 13 13 12 12 12 12 10 8 6 5 5 5 5 5 6 7 7 7
13 5 5 7 7 8 8 7 4 2 2 4 4 6 6 6 6 7 7 8 8 10 11 12 12 12 12 12 12 11 12 12 11 9 7 6 5 5 5 6 6 7 8 8
10 6 6 9 10 9 8 4 4 4 6 3 4 5 6 6 7 7 8 8 9 9 10 11 12 12 12 11 11 11 11 11 11 10 9 9 7 7 6 5 5 6 7 7
9 9 10 11 9 8 4 3 4 5 6 6 5 7 3 6 6 7 7 7 8 8 10 11 11 11 10 10 10 10 10 10 11 11 10 8 8 6 5 5 5 5 5 6
6 5 7 7 5 5 6 6 5 7 8 8 4 6 3 3 3 4 6 7 7 8 9 9 9 9 8 9 9 10 10 10 10 10 9 9 8 7 6 5 5 5 4 5
10 10 7 6 8 8 10 9 8 8 8 6 3 6 3 2 1 2 4 7 8 8 9 10 10 9 9 9 10 10 10 9 9 9 8 8 8 7 7 6 5 5 4 4
13 13 13 11 12 10 13 13 10 8 7 4 5 5 1 2 2 3 5 7 9 10 10 9 9 9 9 9 10 10 9 9 8 8 8 7 7 6 5 6 5 5 4 3
10 10 8 8 8 9 11 13 10 8 7 7 5 3 3 4 4 5 7 9 10 10 10 10 9 8 8 9 9 9 9 9 8 8 7 6 6 6 5 5 5 4 3 3
6 8 9 8 8 5 7 9 7 10 8 9 7 7 4 6 6 7 8 9 10 10 10 10 9 9 8 8 8 9 9 8 8 7 6 5 5 5 5 5 4 4 3 3
9 9 9 10 12 14 10 10 9 9 9 9 7 4 2 3 5 7 8 9 11 11 11 10 10 9 8 8 8 8 8 8 7 7 6 4 4 4 4 4 4 4 3 3
11 9 10 11 6 4 12 13 13 11 9 9 9 3 5 2 3 5 7 9 10 10 10 11 10 9 8 8 8 8 8 7 7 7 6 5 4 3 3 3 3 3 3 3
10 8 10 11 10 9 11 11 13 12 9 10 11 5 6 4 4 5 7 9 10 11 11 11 10 9 9 8 8 8 7 7 7 7 7 5 4 3 2 2 2 3 3 2
8 10 13 14 11 13 13 13 13 14 12 12 13 8 4 4 4 5 8 9 11 11 11 11 11 10 9 8 8 8 7 7 7 7 7 6 5 4 3 2 2 2 2 2
7 12 13 12 7 9 12 13 14 16 14 13 11 10 7 4 4 4 7 9 11 12 12 12 12 11 10 9 9 8 7 7 7 7 7 6 5 5 4 3 3 3 2 2
6 9 11 12 11 10 11 12 13 14 13 13 11 9 4 2 2 3 6 9 11 12 13 13 13 12 11 10 9 9 8 8 8 7 7 6 6 6 5 4 4 4 3 3
8 8 10 13 12 11 14 13 12 12 11 11 11 7 3 2 2 3 5 8 10 11 12 13 13 12 11 10 9 9 9 8 8 7 6 6 6 6 5 5 5 4 4 4
9 10 9 11 11 16 9 6 8 9 8 8 6 4 3 3 2 1 1 4 6 8 10 11 12 11 11 10 10 9 9 8 8 7 6 6 6 6 6 5 5 4 4 4
10 10 10 11 15 13 7 5 7 8 7 4 4 3 2 1 2 3 3 1 2 4 7 9 10 11 10 10 10 10 9 8 7 7 6 6 6 6 6 6 5 4 4 4
8 9 11 11 14 15 9 6 3 6 8 2 2 2 2 2 6 2 3 2 2 4 6 8 10 10 10 9 10 10 9 8 7 7 6 6 6 5 5 5 5 4 4 4
11 10 13 13 13 9 3 4 5 9 3 2 1 0 1 1 3 3 3 4 4 5 7 9 10 10 9 9 9 9 9 8 7 6 6 6 6 5 5 5 4 4 4 4
10 11 12 12 14 9 4 4 4 2 4 3 2 2 2 4 5 4 5 5 5 6 7 8 9 8 8 9 9 8 8 7 7 7 6 6 5 5 5 5 4 4 4 5
5 4 4 5 3 5 3 2 3 2 2 2 2 3 4 4 5 5 6 6 6 6 6 7 8 8 7 7 6 6 6 6 6 6 6 5 5 4 4 4 4 4 4 3
3 2 2 2 2 3 4 3 3 3 3 3 3 3 4 5 5 6 6 6 6 6 6 6 7 7 6 5 5 5 5 6 6 6 6 5 5 5 4 3 3 3 2 3
2 3 3 3 4 4 4 4 4 5 5 5 4 4 4 4 5 5 5 5 5 5 5 5 5 6 6 5 5 4 5 6 6 6 5 5 5 5 4 4 2 2 2 1
3 3 4 4 3 2 3 2 3 3 4 4 4 4 4 4 4 4 4 4 4 5 5 5 5 5 5 5 4 4 4 5 6 5 5 4 4 4 4 5 4 4 3 5
Wind_Direction
208 221 217 212 234 282 239 239 223 137 78 241 229 216 180 183 194 190 189 191 193 195 187 183 183 186 185 187 187 189 195 190 190 194 200 205 210 214 211 212 213 216 222 218
208 218 209 182 186 209 219 229 215 166 119 254 235 228 198 192 203 202 200 198 198 191 183 182 185 187 190 189 191 192 195 193 195 198 205 212 213 219 214 213 208 218 222 223
221 187 171 194 195 211 219 236 228 208 188 210 244 222 201 193 201 205 210 206 200 195 190 186 188 191 193 193 191 193 193 193 199 195 200 206 207 220 212 213 212 219 222 223
222 185 192 205 209 222 218 216 224 217 235 226 259 269 188 192 200 204 206 204 202 198 194 190 191 193 195 193 190 193 192 195 195 194 202 206 212 216 219 219 215 216 220 225
202 197 203 211 211 222 215 153 202 228 247 257 239 275 202 180 205 201 199 198 197 194 192 191 192 189 190 190 188 190 190 192 194 198 201 208 217 221 223 220 216 221 219 227
204 195 220 216 198 196 154 163 184 228 244 248 246 267 254 178 205 189 180 184 183 180 179 181 181 178 183 185 185 186 188 194 193 197 202 208 215 216 219 221 219 218 216 224
207 207 203 203 188 181 199 210 219 224 229 239 160 251 271 95 176 209 184 177 174 172 172 174 175 177 179 181 182 183 184 190 192 196 203 211 214 215 218 226 221 224 227 225
205 206 200 203 215 206 212 225 238 249 245 219 185 242 216 120 166 184 176 166 167 169 169 171 173 174 176 178 179 180 180 185 189 192 197 206 211 217 220 222 228 223 233 232
214 207 178 200 218 230 209 227 244 249 262 264 234 232 216 166 176 174 166 165 168 168 165 167 168 170 172 175 178 179 180 182 187 190 191 198 208 219 221 217 223 227 229 226
225 215 187 179 189 215 248 224 220 238 242 247 233 233 219 174 177 175 176 174 169 166 164 165 166 168 168 169 171 174 177 180 184 185 190 190 198 205 215 222 218 221 221 226
224 222 191 191 209 204 196 210 224 233 244 252 247 222 132 179 185 184 181 177 172 169 166 165 164 163 161 161 163 168 171 173 176 178 179 187 188 194 204 213 214 213 221 225
213 227 219 209 198 255 222 220 214 223 226 243 264 228 116 164 185 183 176 170 169 167 166 164 161 159 160 161 161 163 166 169 170 167 167 173 178 185 198 205 209 206 213 224
194 216 214 209 204 205 219 220 223 233 232 234 243 223 130 152 186 186 181 170 168 167 167 165 163 164 163 160 160 158 164 165 161 160 162 163 168 172 180 198 204 199 205 210
208 222 229 230 222 204 210 213 216 222 227 230 239 245 194 200 214 195 184 179 173 173 171 172 169 167 163 160 159 157 160 158 158 159 160 159 163 162 162 174 174 168 164 158
217 225 231 249 248 223 219 214 213 224 239 245 239 241 242 238 243 218 188 183 180 177 178 178 175 169 165 162 161 161 158 156 155 155 155 156 159 159 159 156 149 142 139 137
217 233 224 230 228 228 231 224 220 226 236 244 248 245 255 266 233 212 195 187 187 185 182 180 176 170 169 168 164 159 158 157 156 157 156 157 161 162 161 156 147 141 137 133
209 218 223 225 218 224 229 225 222 224 231 238 240 243 248 248 245 234 208 196 194 188 182 179 175 172 168 166 163 161 159 158 159 157 158 161 164 162 163 159 149 142 140 140
220 218 222 226 214 228 227 207 219 225 227 237 254 262 271 282 282 281 252 207 196 188 181 176 171 167 165 161 159 157 156 158 157 157 161 165 166 162 161 159 152 150 149 151
218 216 223 223 222 225 205 194 210 220 220 222 244 262 282 272 202 137 69 87 175 180 174 167 164 160 158 158 157 156 156 159 160 162 166 166 166 166 163 162 160 159 159 154
195 216 224 223 230 229 208 170 201 223 215 171 238 255 268 239 239 153 58 55 108 140 147 150 151 149 151 155 157 159 160 162 166 167 169 166 165 166 166 164 162 157 156 152
190 204 219 223 229 229 119 135 189 217 204 109 159 243 225 263 1 57 79 87 104 125 138 142 145 146 147 150 156 162 163 166 163 158 159 159 161 163 164 162 159 155 149 141
210 209 215 223 229 216 99 167 199 49 66 89 88 86 90 81 74 87 93 94 100 115 130 138 139 138 141 150 158 161 159 157 155 153 153 152 156 159 154 158 155 153 152 152
230 251 234 236 225 72 74 63 38 54 89 82 88 96 107 105 99 100 99 96 94 102 117 129 133 133 137 145 152 154 146 149 152 152 149 148 145 140 144 151 152 159 167 170
199 257 225 195 130 107 91 79 66 67 77 74 82 102 112 107 102 105 100 96 95 95 108 121 127 128 128 131 133 134 137 145 147 146 144 146 148 145 141 142 151 162 170 177
233 212 204 192 160 139 107 87 80 76 69 68 74 87 95 104 106 107 107 100 98 98 102 111 118 121 120 119 122 128 132 141 144 145 147 153 156 151 146 141 127 150 123 102
239 246 239 220 193 184 137 103 89 87 74 66 74 83 82 92 102 105 102 95 98 103 104 110 118 120 118 117 121 129 141 152 155 155 157 162 163 159 162 154 141 74 82 94
Height
1519 1516 1514 1513 1513 1514 1515 1516 1518 1518 1516 1516 1516 1517 1519 1523 1525 1528 1531 1534 1537 1540 1543 1545 1547 1548 1550 1552 1554 1556 1558 1560 1562 1564 1566 1567 1569 1570 1571 1572 1572 1573 1574 1575
1517 1515 1513 1515 1516 1517 1517 1518 1518 1517 1517 1517 1516 1516 1516 1521 1523 1526 1529 1532 1535 1538 1541 1543 1544 1546 1548 1550 1552 1554 1556 1558 1560 1562 1564 1566 1567 1568 1569 1570 1571 1571 1572 1573
1514 1512 1516 1517 1518 1518 1517 1517 1517 1519 1518 1516 1517 1519 1517 1518 1522 1525 1527 1530 1533 1536 1538 1540 1542 1544 1546 1548 1549 1552 1554 1555 1558 1560 1562 1563 1565 1566 1568 1568 1569 1570 1571 1572
1512 1513 1516 1516 1515 1514 1518 1513 1516 1518 1519 1517 1519 1523 1515 1514 1518 1521 1524 1527 1530 1533 1536 1538 1540 1542 1544 1546 1548 1549 1551 1553 1555 1557 1559 1561 1562 1564 1565 1566 1567 1568 1569 1569
1511 1513 1515 1515 1513 1513 1513 1514 1515 1516 1517 1519 1518 1522 1513 1511 1515 1516 1520 1524 1527 1530 1533 1536 1538 1540 1542 1544 1546 1547 1549 1551 1553 1554 1556 1558 1560 1562 1563 1564 1565 1566 1567 1567
1509 1513 1512 1510 1511 1513 1515 1517 1518 1516 1515 1529 1521 1525 1519 1508 1512 1513 1517 1522 1526 1529 1532 1534 1537 1539 1541 1542 1544 1545 1547 1549 1550 1552 1554 1556 1557 1559 1560 1561 1562 1564 1565 1565
1514 1511 1510 1511 1512 1514 1514 1519 1529 1531 1530 1527 1519 1523 1516 1508 1510 1513 1516 1521 1524 1527 1530 1533 1535 1537 1539 1540 1542 1543 1545 1546 1548 1550 1552 1554 1555 1557 1558 1560 1561 1561 1563 1563
1514 1513 1507 1507 1507 1509 1510 1511 1527 1536 1531 1521 1522 1520 1509 1508 1512 1514 1516 1519 1523 1526 1529 1531 1534 1536 1537 1539 1540 1542 1543 1545 1546 1548 1550 1552 1553 1555 1556 1557 1559 1559 1560 1561
1505 1508 1503 1505 1506 1505 1510 1509 1502 1514 1521 1525 1516 1512 1506 1507 1510 1512 1515 1518 1521 1525 1528 1530 1533 1534 1536 1537 1539 1540 1542 1543 1545 1546 1548 1549 1551 1552 1553 1555 1556 1557 1557 1558
1500 1508 1503 1505 1507 1508 1505 1502 1510 1515 1531 1534 1523 1518 1510 1506 1507 1510 1513 1516 1520 1523 1526 1529 1531 1533 1534 1536 1537 1538 1540 1541 1543 1545 1546 1547 1548 1549 1551 1553 1553 1554 1555 1555
1500 1507 1505 1505 1506 1505 1510 1510 1507 1509 1512 1525 1528 1516 1498 1502 1504 1507 1511 1515 1518 1522 1525 1527 1530 1532 1533 1535 1536 1537 1538 1540 1541 1543 1545 1546 1547 1548 1549 1550 1551 1552 1553 1553
1500 1502 1504 1501 1498 1499 1499 1500 1506 1516 1520 1517 1516 1512 1498 1501 1503 1506 1509 1514 1518 1521 1524 1527 1529 1531 1532 1534 1535 1536 1537 1539 1540 1542 1543 1544 1546 1546 1548 1549 1549 1550 1550 1551
1500 1504 1513 1511 1508 1504 1502 1500 1500 1502 1508 1513 1517 1511 1499 1502 1504 1506 1510 1513 1517 1520 1523 1526 1528 1530 1531 1533 1534 1536 1537 1538 1539 1541 1542 1543 1544 1545 1546 1547 1547 1548 1548 1548
1501 1500 1504 1505 1498 1494 1501 1501 1500 1502 1506 1509 1508 1502 1498 1500 1502 1505 1509 1512 1515 1518 1521 1524 1526 1528 1530 1532 1533 1535 1536 1537 1539 1540 1541 1542 1543 1544 1544 1545 1546 1546 1546 1547
1499 1499 1498 1493 1489 1490 1493 1496 1498 1500 1497 1501 1499 1498 1496 1498 1501 1504 1507 1511 1513 1516 1519 1521 1524 1526 1528 1530 1532 1534 1536 1537 1538 1539 1540 1541 1542 1543 1543 1544 1544 1544 1544 1545
1499 1498 1497 1498 1493 1493 1494 1492 1494 1496 1495 1495 1495 1496 1495 1499 1502 1504 1506 1508 1511 1513 1516 1519 1522 1524 1526 1529 1531 1533 1534 1536 1537 1538 1539 1540 1540 1541 1542 1542 1542 1543 1543 1543
1496 1499 1501 1499 1493 1496 1500 1492 1492 1493 1492 1494 1496 1495 1496 1499 1501 1503 1505 1507 1508 1511 1514 1516 1519 1522 1524 1526 1529 1531 1533 1535 1536 1537 1538 1538 1539 1539 1540 1540 1540 1541 1541 1541
1498 1499 1497 1495 1500 1511 1491 1486 1488 1491 1492 1492 1493 1495 1497 1500 1502 1504 1505 1506 1507 1509 1512 1514 1517 1519 1522 1525 1527 1529 1531 1533 1534 1535 1536 1536 1537 1538 1538 1538 1538 1539 1539 1540
1495 1497 1494 1494 1499 1496 1491 1489 1490 1492 1492 1494 1495 1497 1498 1500 1501 1503 1504 1505 1506 1508 1510 1512 1515 1518 1520 1522 1525 1527 1530 1532 1532 1534 1534 1534 1535 1535 1536 1536 1536 1537 1537 1538
1495 1495 1493 1492 1498 1499 1487 1488 1491 1493 1495 1496 1497 1498 1499 1499 1496 1499 1504 1504 1505 1506 1508 1510 1513 1516 1518 1521 1523 1525 1527 1529 1531 1531 1532 1532 1532 1533 1534 1534 1535 1536 1536 1536
1492 1494 1491 1491 1493 1485 1486 1490 1493 1498 1496 1496 1498 1499 1500 1500 1501 1504 1503 1504 1505 1506 1507 1509 1511 1514 1516 1519 1521 1523 1525 1527 1528 1529 1530 1530 1530 1531 1532 1533 1534 1534 1535 1535
1484 1486 1489 1487 1491 1491 1491 1492 1492 1495 1498 1498 1499 1500 1502 1503 1503 1504 1504 1504 1504 1505 1507 1508 1510 1513 1515 1517 1519 1520 1522 1524 1526 1527 1528 1528 1529 1530 1531 1531 1532 1533 1533 1534
1485 1485 1482 1485 1489 1493 1494 1495 1498 1498 1499 1500 1500 1501 1502 1503 1504 1505 1505 1505 1505 1506 1507 1509 1510 1512 1514 1517 1519 1520 1521 1523 1524 1525 1526 1527 1528 1528 1529 1530 1530 1531 1532 1533
1488 1491 1489 1490 1492 1495 1497 1498 1499 1500 1500 1501 1502 1502 1503 1504 1505 1505 1505 1506 1506 1506 1508 1510 1511 1512 1514 1516 1517 1519 1520 1522 1523 1524 1525 1526 1526 1527 1528 1528 1529 1530 1531 1531
1490 1490 1489 1492 1495 1497 1498 1500 1500 1501 1502 1502 1503 1504 1504 1505 1506 1506 1506 1507 1507 1507 1508 1510 1511 1512 1514 1515 1516 1518 1519 1520 1522 1523 1523 1524 1525 1526 1526 1527 1527 1529 1529 1530
1492 1492 1490 1490 1495 1495 1499 1501 1502 1502 1503 1503 1504 1504 1505 1506 1506 1507 1507 1508 1508 1508 1509 1510 1511 1512 1513 1514 1516 1517 1518 1519 1520 1521 1522 1523 1524 1525 1525 1526 1526 1526 1527 1527